COSMOS 1261 DEB, 27796

Orbit data source: Space-Track

COSMOS 1261 DEB, 27796 is space debris in HEO originally from a launch on Tue, 31 Mar 1981 UTC launched from the Plesetsk Missile And Space Complex (PKMTR). Debris objects in space refer to the collection of defunct objects orbiting the Earth. Examples of debris include non-operational satellites, rocket bodies, and fragments generated from explosions, collisions, or faulty payload assembly.

Loading next visibility...
Identifier
27796, 1981-031H
Orbit
HEO
Country
Flag of CISCIS
Related business
Manufacturer
Unknown
Mission
Spacecraft
Bus & Motor
Unknown
Mass
Unknown
Launch date (UTC)
1981-03-31 (45 years ago)
Launch vehicle
Unknown
Launch site
Plesetsk Missile And Space Complex (PKMTR)
Object type
Payload
Rocket body
Debris
Shape & HBR
Unknown shape, 0.5 m
Radar Cross Section
Medium (>0.1 m² and <1 m²)

Expand to show TLE details & history
Last TLE update: 2 days ago

TLE from 2 days ago
0 COSMOS 1261 DEB
1 27796U 81031H   26034.10643752  .00000842  00000-0  00000-0 0  9991
2 27796  65.5058   9.2420 6944928  18.6931 357.3479  2.01740414183169
Epoch: 2026-02-03T02:33Z
TLE epoch observation values (Epoch: 2026-02-03T02:33:16.201Z)
Latitude
Longitude
-162.39543°
Altitude
1,902.439 km
Speed
9.012 km/s
True Right ascension
00h 36m 51s
True Declination
0° 00' 00"
Sunlit
Object was in daylight at epoch
Visualization orbit readout
Latitude
Unknown
Longitude
Unknown
Altitude
Unknown
Speed
Unknown
Apparent Right ascension
Unknown
Apparent Declination
Unknown
Sunlit
N/A
Visualization observer readout
Local Sidereal Time
03:04:13
Azimuth
Unknown
Elevation
Unknown
Doppler factor
Unknown
Orbital elements
Apogee altitude
38,451.181 km
Perigee altitude
1,704.328 km
Semi-major axis
26,455.892 km
Eccentricity
0.69449
Inclination
65.5058°
RAAN
9.242°
Arg. of periapsis
18.6931°
True anomaly
339.89911°
Mean anomaly
357.3479°
Eccentric anomaly
351.39254°
Mean motion
0.50438 °/min
Orbital period
713.74 mins
BSTAR
0
Loading maneuver chart data...
Computing Atmospheric mass density...
Loading historical data...
Loading historical data...
Loading historical data...
Loading historical data...
Loading historical data...
Loading historical data...
Loading historical data...

Documentation

Showing up to 5 results
|